| time (UTC) | temp F | wind direction | speed MPH | gust MPH | rain 1hr in | rain 24hr in | rain mn in | humidity % | barometer mb |
| 20260506174947 | 47 | 243 | 2.0 | 6.0 | 0.00 | 0.43 | 0.42 | 89 | 1009.6 |
| 20260506174741 | 47 | 229 | 2.0 | 6.0 | 0.00 | 0.43 | 0.42 | 88 | 1009.6 |
| 20260506174531 | 47 | 231 | 1.0 | 6.0 | 0.00 | 0.43 | 0.42 | 88 | 1009.5 |
| 20260506174325 | 47 | 240 | 1.0 | 5.0 | 0.00 | 0.43 | 0.42 | 89 | 1009.5 |
| 20260506174125 | 47 | 238 | 1.0 | 4.0 | 0.00 | 0.43 | 0.42 | 89 | 1009.5 |
| 20260506173915 | 47 | 236 | 0.0 | 4.0 | 0.00 | 0.43 | 0.42 | 90 | 1009.5 |
| 20260506173351 | 47 | 228 | 0.0 | 4.0 | 0.00 | 0.43 | 0.42 | 89 | 1009.5 |
| 20260506173148 | 47 | 234 | 1.0 | 4.0 | 0.00 | 0.43 | 0.42 | 89 | 1009.4 |
| 20260506172942 | 47 | 230 | 1.0 | 4.0 | 0.00 | 0.43 | 0.42 | 89 | 1009.4 |
| 20260506172737 | 47 | 216 | 1.0 | 4.0 | 0.00 | 0.43 | 0.42 | 88 | 1009.3 |
| 20260506172528 | 47 | 232 | 1.0 | 8.0 | 0.00 | 0.43 | 0.42 | 88 | 1009.4 |
| 20260506172322 | 47 | 226 | 1.0 | 8.0 | 0.00 | 0.43 | 0.42 | 88 | 1009.3 |
| 20260506172120 | 47 | 236 | 1.0 | 8.0 | 0.00 | 0.43 | 0.42 | 88 | 1009.3 |
| 20260506171918 | 47 | 250 | 1.0 | 8.0 | 0.00 | 0.43 | 0.42 | 88 | 1009.3 |
| 20260506171712 | 47 | 238 | 2.0 | 8.0 | 0.00 | 0.43 | 0.42 | 88 | 1009.2 |
| 20260506171507 | 47 | 239 | 3.0 | 11.0 | 0.00 | 0.43 | 0.42 | 87 | 1009.2 |
| 20260506170942 | 47 | 262 | 3.0 | 11.0 | 0.00 | 0.43 | 0.42 | 87 | 1009.2 |
| 20260506170743 | 47 | 244 | 4.0 | 11.0 | 0.00 | 0.43 | 0.42 | 87 | 1009.0 |
| 20260506170534 | 47 | 248 | 5.0 | 11.0 | 0.00 | 0.43 | 0.42 | 87 | 1009.1 |
| 20260506170335 | 47 | 255 | 6.0 | 11.0 | 0.00 | 0.44 | 0.42 | 86 | 1009.0 |
| 20260506170128 | 47 | 233 | 6.0 | 11.0 | 0.00 | 0.44 | 0.42 | 86 | 1009.1 |
| 20260506165922 | 48 | 238 | 6.0 | 11.0 | 0.00 | 0.44 | 0.42 | 85 | 1009.1 |
| 20260506165711 | 48 | 229 | 5.0 | 11.0 | 0.00 | 0.44 | 0.42 | 85 | 1009.1 |
| 20260506165503 | 48 | 209 | 4.0 | 10.0 | 0.00 | 0.44 | 0.42 | 85 | 1009.2 |
| 20260506165253 | 48 | 236 | 4.0 | 10.0 | 0.00 | 0.44 | 0.42 | 86 | 1009.1 |
| 20260506165049 | 48 | 248 | 4.0 | 10.0 | 0.00 | 0.44 | 0.42 | 88 | 1009.2 |
| 20260506164847 | 48 | 256 | 4.0 | 10.0 | 0.00 | 0.44 | 0.42 | 88 | 1009.2 |
| 20260506164644 | 48 | 242 | 4.0 | 10.0 | 0.00 | 0.44 | 0.42 | 87 | 1009.2 |
| 20260506164435 | 48 | 249 | 3.0 | 9.0 | 0.00 | 0.44 | 0.42 | 87 | 1009.2 |
| 20260506164230 | 48 | 245 | 3.0 | 9.0 | 0.00 | 0.44 | 0.42 | 87 | 1009.1 |
| 20260506164027 | 48 | 212 | 3.0 | 7.0 | 0.00 | 0.44 | 0.42 | 87 | 1009.2 |
| 20260506163822 | 48 | 241 | 2.0 | 11.0 | 0.00 | 0.44 | 0.42 | 87 | 1009.2 |
| 20260506163616 | 48 | 264 | 2.0 | 11.0 | 0.00 | 0.44 | 0.42 | 88 | 1009.2 |
| 20260506163052 | 48 | 238 | 4.0 | 11.0 | 0.00 | 0.44 | 0.42 | 89 | 1009.2 |
| 20260506162850 | 47 | 235 | 4.0 | 11.0 | 0.00 | 0.44 | 0.42 | 88 | 1009.3 |
| 20260506162643 | 47 | 241 | 5.0 | 11.0 | 0.00 | 0.44 | 0.42 | 88 | 1009.2 |
| 20260506162442 | 48 | 234 | 5.0 | 11.0 | 0.00 | 0.44 | 0.42 | 88 | 1009.2 |
| 20260506162235 | 48 | 258 | 5.0 | 11.0 | 0.00 | 0.44 | 0.42 | 87 | 1009.2 |
| 20260506162030 | 48 | 235 | 4.0 | 11.0 | 0.00 | 0.44 | 0.42 | 87 | 1009.2 |
| 20260506161828 | 48 | 240 | 3.0 | 10.0 | 0.00 | 0.44 | 0.42 | 88 | 1009.3 |
| 20260506161629 | 48 | 268 | 3.0 | 10.0 | 0.00 | 0.44 | 0.42 | 87 | 1009.2 |
| 20260506161423 | 48 | 254 | 3.0 | 7.0 | 0.00 | 0.44 | 0.42 | 88 | 1009.3 |
| 20260506160855 | 48 | 203 | 3.0 | 10.0 | 0.00 | 0.44 | 0.42 | 88 | 1009.4 |
| 20260506160327 | 48 | 226 | 4.0 | 10.0 | 0.00 | 0.44 | 0.42 | 89 | 1009.3 |
| 20260506160125 | 48 | 228 | 4.0 | 11.0 | 0.00 | 0.44 | 0.42 | 89 | 1009.3 |
| 20260506155920 | 48 | 255 | 4.0 | 11.0 | 0.00 | 0.44 | 0.42 | 89 | 1009.3 |
| 20260506155714 | 48 | 239 | 5.0 | 11.0 | 0.00 | 0.44 | 0.42 | 88 | 1009.4 |
| 20260506155515 | 48 | 236 | 5.0 | 11.0 | 0.00 | 0.44 | 0.42 | 88 | 1009.3 |
| 20260506155309 | 48 | 222 | 5.0 | 11.0 | 0.00 | 0.44 | 0.42 | 88 | 1009.3 |
| 20260506155108 | 48 | 203 | 5.0 | 11.0 | 0.00 | 0.44 | 0.42 | 88 | 1009.3 |
| 20260506154902 | 48 | 229 | 5.0 | 11.0 | 0.00 | 0.44 | 0.42 | 88 | 1009.3 |
| 20260506154701 | 48 | 226 | 5.0 | 11.0 | 0.00 | 0.44 | 0.42 | 88 | 1009.3 |
| 20260506154458 | 48 | 247 | 5.0 | 11.0 | 0.00 | 0.44 | 0.42 | 89 | 1009.2 |
| 20260506154248 | 48 | 254 | 5.0 | 11.0 | 0.00 | 0.44 | 0.42 | 88 | 1009.2 |
| 20260506154046 | 48 | 237 | 4.0 | 10.0 | 0.00 | 0.44 | 0.42 | 90 | 1009.2 |
| 20260506153845 | 48 | 251 | 5.0 | 10.0 | 0.00 | 0.44 | 0.42 | 90 | 1009.2 |
| 20260506153638 | 48 | 245 | 5.0 | 10.0 | 0.00 | 0.44 | 0.42 | 90 | 1009.3 |
| 20260506153430 | 48 | 249 | 5.0 | 10.0 | 0.00 | 0.44 | 0.42 | 90 | 1009.3 |
| 20260506152908 | 48 | 273 | 4.0 | 10.0 | 0.00 | 0.44 | 0.42 | 90 | 1009.3 |
| 20260506152702 | 48 | 229 | 3.0 | 7.0 | 0.00 | 0.44 | 0.42 | 89 | 1009.3 |
| 20260506152453 | 48 | 234 | 2.0 | 6.0 | 0.00 | 0.44 | 0.42 | 89 | 1009.3 |
| 20260506151928 | 48 | 238 | 3.0 | 10.0 | 0.00 | 0.44 | 0.42 | 90 | 1009.3 |
| 20260506151718 | 48 | 236 | 3.0 | 10.0 | 0.00 | 0.44 | 0.42 | 89 | 1009.3 |
| 20260506151517 | 48 | 276 | 3.0 | 10.0 | 0.00 | 0.44 | 0.42 | 88 | 1009.2 |
| 20260506151311 | 49 | 233 | 4.0 | 14.0 | 0.00 | 0.44 | 0.42 | 88 | 1009.2 |
| 20260506151100 | 49 | 252 | 4.0 | 14.0 | 0.00 | 0.44 | 0.42 | 87 | 1009.1 |
| 20260506150545 | 50 | 276 | 4.0 | 14.0 | 0.00 | 0.44 | 0.42 | 89 | 1009.2 |
| 20260506150340 | 50 | 255 | 4.0 | 14.0 | 0.00 | 0.44 | 0.42 | 88 | 1009.2 |
| 20260506150133 | 50 | 252 | 5.0 | 14.0 | 0.00 | 0.44 | 0.42 | 88 | 1009.2 |
| 20260506145932 | 50 | 247 | 5.0 | 14.0 | 0.00 | 0.44 | 0.42 | 89 | 1009.2 |
| 20260506145723 | 49 | 257 | 5.0 | 14.0 | 0.00 | 0.44 | 0.42 | 89 | 1009.3 |
| 20260506145515 | 49 | 229 | 5.0 | 14.0 | 0.00 | 0.44 | 0.42 | 85 | 1009.2 |
| 20260506144944 | 49 | 250 | 4.0 | 11.0 | 0.00 | 0.44 | 0.42 | 89 | 1009.1 |
| 20260506144733 | 49 | 243 | 5.0 | 12.0 | 0.00 | 0.44 | 0.42 | 88 | 1009.1 |
| 20260506144523 | 49 | 233 | 6.0 | 12.0 | 0.00 | 0.44 | 0.42 | 88 | 1009.1 |
| 20260506144322 | 49 | 248 | 6.0 | 12.0 | 0.00 | 0.44 | 0.42 | 88 | 1009.2 |
| 20260506144116 | 49 | 220 | 6.0 | 12.0 | 0.00 | 0.44 | 0.42 | 88 | 1009.2 |
| 20260506143917 | 49 | 275 | 7.0 | 12.0 | 0.00 | 0.44 | 0.42 | 89 | 1009.2 |
| 20260506143351 | 49 | 230 | 7.0 | 15.0 | 0.00 | 0.44 | 0.42 | 92 | 1009.1 |
| 20260506143152 | 48 | 249 | 8.0 | 15.0 | 0.00 | 0.44 | 0.42 | 91 | 1009.1 |
| 20260506142949 | 48 | 222 | 7.0 | 15.0 | 0.00 | 0.44 | 0.42 | 91 | 1009.1 |
| 20260506142744 | 48 | 236 | 8.0 | 15.0 | 0.00 | 0.44 | 0.42 | 92 | 1009.1 |
| 20260506142545 | 48 | 233 | 8.0 | 15.0 | 0.00 | 0.44 | 0.42 | 91 | 1009.1 |
| 20260506142346 | 48 | 254 | 8.0 | 15.0 | 0.00 | 0.44 | 0.42 | 89 | 1009.1 |
| 20260506142141 | 49 | 232 | 8.0 | 15.0 | 0.00 | 0.44 | 0.42 | 92 | 1009.1 |
| 20260506141608 | 48 | 243 | 8.0 | 15.0 | 0.00 | 0.44 | 0.42 | 92 | 1009.1 |
| 20260506141400 | 48 | 224 | 7.0 | 15.0 | 0.00 | 0.44 | 0.42 | 93 | 1009.0 |
| 20260506141152 | 47 | 284 | 7.0 | 15.0 | 0.00 | 0.44 | 0.42 | 92 | 1009.1 |
| 20260506140951 | 47 | 229 | 7.0 | 15.0 | 0.00 | 0.44 | 0.42 | 94 | 1009.2 |
| 20260506140427 | 47 | 238 | 8.0 | 15.0 | 0.00 | 0.44 | 0.42 | 93 | 1009.1 |
| 20260506140222 | 47 | 240 | 8.0 | 15.0 | 0.00 | 0.44 | 0.42 | 93 | 1009.2 |
| 20260506135658 | 46 | 268 | 7.0 | 18.0 | 0.00 | 0.44 | 0.42 | 93 | 1009.2 |
| 20260506135454 | 46 | 247 | 7.0 | 18.0 | 0.00 | 0.44 | 0.42 | 93 | 1009.2 |
| 20260506135251 | 46 | 205 | 7.0 | 18.0 | 0.00 | 0.44 | 0.42 | 94 | 1009.2 |
| 20260506135046 | 46 | 244 | 7.0 | 18.0 | 0.00 | 0.44 | 0.42 | 94 | 1009.2 |
| 20260506134844 | 46 | 241 | 7.0 | 18.0 | 0.00 | 0.44 | 0.42 | 95 | 1009.2 |
| 20260506134638 | 46 | 238 | 7.0 | 18.0 | 0.00 | 0.44 | 0.42 | 95 | 1009.2 |
| 20260506134435 | 46 | 237 | 7.0 | 18.0 | 0.00 | 0.44 | 0.42 | 95 | 1009.1 |
| 20260506134228 | 46 | 240 | 7.0 | 18.0 | 0.00 | 0.44 | 0.42 | 96 | 1009.2 |
| 20260506134018 | 46 | 249 | 8.0 | 18.0 | 0.00 | 0.44 | 0.42 | 95 | 1009.1 |
| 20260506133818 | 46 | 223 | 8.0 | 18.0 | 0.00 | 0.44 | 0.42 | 95 | 1009.1 |
| 20260506133617 | 46 | 237 | 8.0 | 15.0 | 0.00 | 0.44 | 0.42 | 96 | 1009.2 |
| 20260506133407 | 46 | 237 | 8.0 | 15.0 | 0.00 | 0.44 | 0.42 | 96 | 1009.1 |
| 20260506133203 | 45 | 264 | 8.0 | 15.0 | 0.00 | 0.44 | 0.42 | 96 | 1009.2 |
| 20260506132958 | 45 | 231 | 8.0 | 15.0 | 0.00 | 0.44 | 0.42 | 97 | 1009.2 |
| 20260506132750 | 45 | 255 | 7.0 | 15.0 | 0.00 | 0.44 | 0.42 | 97 | 1009.2 |
| 20260506132543 | 45 | 226 | 7.0 | 15.0 | 0.00 | 0.44 | 0.42 | 97 | 1009.1 |
| 20260506132340 | 45 | 225 | 7.0 | 15.0 | 0.00 | 0.44 | 0.42 | 97 | 1009.1 |
| 20260506132131 | 45 | 226 | 7.0 | 15.0 | 0.00 | 0.44 | 0.42 | 97 | 1009.2 |
| 20260506131923 | 45 | 242 | 7.0 | 15.0 | 0.00 | 0.45 | 0.42 | 97 | 1009.0 |
| 20260506131725 | 45 | 242 | 7.0 | 15.0 | 0.00 | 0.46 | 0.42 | 97 | 1009.1 |
| 20260506131523 | 45 | 235 | 7.0 | 15.0 | 0.00 | 0.46 | 0.42 | 97 | 1009.0 |
| 20260506131318 | 45 | 225 | 7.0 | 15.0 | 0.00 | 0.46 | 0.42 | 97 | 1009.1 |
| 20260506131112 | 45 | 228 | 7.0 | 15.0 | 0.00 | 0.46 | 0.42 | 96 | 1009.0 |
| 20260506130910 | 45 | 215 | 7.0 | 15.0 | 0.00 | 0.46 | 0.42 | 96 | 1009.0 |
| 20260506130705 | 45 | 238 | 6.0 | 15.0 | 0.00 | 0.46 | 0.42 | 96 | 1008.9 |
| 20260506130457 | 45 | 229 | 7.0 | 15.0 | 0.00 | 0.46 | 0.42 | 96 | 1009.0 |
| 20260506130250 | 45 | 231 | 7.0 | 15.0 | 0.00 | 0.46 | 0.42 | 96 | 1009.0 |
| 20260506130046 | 45 | 247 | 7.0 | 15.0 | 0.00 | 0.46 | 0.42 | 96 | 1008.9 |
| 20260506125529 | 45 | 238 | 7.0 | 16.0 | 0.00 | 0.46 | 0.42 | 96 | 1008.8 |
| 20260506125320 | 45 | 242 | 6.0 | 16.0 | 0.00 | 0.46 | 0.42 | 96 | 1008.9 |
| 20260506125118 | 45 | 261 | 6.0 | 16.0 | 0.00 | 0.46 | 0.42 | 96 | 1008.9 |
| 20260506124912 | 45 | 236 | 6.0 | 16.0 | 0.00 | 0.46 | 0.42 | 96 | 1008.8 |
| 20260506124355 | 45 | 234 | 5.0 | 16.0 | 0.00 | 0.46 | 0.42 | 97 | 1008.9 |
| 20260506123829 | 45 | 268 | 4.0 | 16.0 | 0.00 | 0.47 | 0.42 | 96 | 1008.8 |
| 20260506123622 | 45 | 236 | 3.0 | 11.0 | 0.00 | 0.47 | 0.42 | 96 | 1008.8 |
| 20260506123418 | 45 | 241 | 3.0 | 11.0 | 0.00 | 0.47 | 0.42 | 96 | 1008.7 |
| 20260506123219 | 45 | 283 | 4.0 | 11.0 | 0.00 | 0.47 | 0.42 | 96 | 1008.8 |
| 20260506123018 | 45 | 279 | 4.0 | 11.0 | 0.00 | 0.47 | 0.42 | 96 | 1008.7 |
| 20260506122812 | 45 | 271 | 4.0 | 11.0 | 0.00 | 0.47 | 0.42 | 96 | 1008.7 |
| 20260506122245 | 45 | 271 | 3.0 | 11.0 | 0.00 | 0.47 | 0.42 | 96 | 1008.5 |
| 20260506122043 | 45 | 316 | 3.0 | 11.0 | 0.00 | 0.47 | 0.42 | 96 | 1008.6 |
| 20260506121838 | 45 | 226 | 3.0 | 11.0 | 0.00 | 0.47 | 0.42 | 96 | 1008.4 |
| 20260506121633 | 45 | 231 | 3.0 | 11.0 | 0.00 | 0.47 | 0.42 | 96 | 1008.4 |
| 20260506121427 | 45 | 283 | 4.0 | 11.0 | 0.00 | 0.47 | 0.42 | 95 | 1008.5 |
| 20260506121218 | 45 | 254 | 4.0 | 11.0 | 0.00 | 0.47 | 0.42 | 95 | 1008.4 |
| 20260506121009 | 45 | 271 | 4.0 | 11.0 | 0.00 | 0.47 | 0.42 | 95 | 1008.5 |
| 20260506120809 | 45 | 261 | 4.0 | 11.0 | 0.00 | 0.47 | 0.42 | 95 | 1008.5 |
| 20260506120602 | 45 | 235 | 4.0 | 11.0 | 0.00 | 0.47 | 0.42 | 95 | 1008.4 |
| 20260506120352 | 45 | 237 | 3.0 | 11.0 | 0.00 | 0.48 | 0.42 | 94 | 1008.4 |
| 20260506120148 | 46 | 257 | 2.0 | 10.0 | 0.00 | 0.48 | 0.42 | 95 | 1008.4 |
| 20260506115945 | 46 | 285 | 3.0 | 10.0 | 0.00 | 0.48 | 0.42 | 95 | 1008.4 |
| 20260506115419 | 46 | 259 | 3.0 | 10.0 | 0.00 | 0.48 | 0.42 | 95 | 1008.3 |
| 20260506115215 | 46 | 283 | 3.0 | 10.0 | 0.00 | 0.48 | 0.42 | 94 | 1008.3 |
| 20260506115013 | 46 | 238 | 3.0 | 8.0 | 0.00 | 0.48 | 0.42 | 94 | 1008.4 |
| 20260506114811 | 46 | 305 | 3.0 | 9.0 | 0.00 | 0.48 | 0.42 | 94 | 1008.3 |
| 20260506114605 | 46 | 237 | 3.0 | 9.0 | 0.00 | 0.48 | 0.42 | 94 | 1008.3 |
| 20260506114357 | 46 | 269 | 3.0 | 9.0 | 0.00 | 0.48 | 0.42 | 95 | 1008.3 |
| 20260506114151 | 46 | 253 | 3.0 | 9.0 | 0.00 | 0.49 | 0.42 | 94 | 1008.4 |
| 20260506113941 | 46 | 250 | 3.0 | 9.0 | 0.00 | 0.49 | 0.42 | 94 | 1008.4 |
| 20260506113732 | 46 | 249 | 2.0 | 10.0 | 0.00 | 0.49 | 0.42 | 94 | 1008.3 |
| 20260506113534 | 46 | 302 | 3.0 | 10.0 | 0.00 | 0.49 | 0.42 | 94 | 1008.2 |
| 20260506113017 | 46 | 250 | 3.0 | 10.0 | 0.00 | 0.49 | 0.42 | 94 | 1008.2 |
| 20260506112811 | 46 | 255 | 4.0 | 10.0 | 0.00 | 0.49 | 0.42 | 94 | 1008.1 |
| 20260506112602 | 46 | 243 | 4.0 | 10.0 | 0.00 | 0.49 | 0.42 | 95 | 1008.2 |
| 20260506112359 | 46 | 244 | 4.0 | 10.0 | 0.00 | 0.49 | 0.42 | 95 | 1008.2 |
| 20260506112157 | 46 | 214 | 4.0 | 10.0 | 0.00 | 0.49 | 0.42 | 95 | 1008.1 |
| 20260506111951 | 46 | 283 | 3.0 | 10.0 | 0.00 | 0.49 | 0.42 | 94 | 1008.1 |
| 20260506111743 | 46 | 252 | 3.0 | 10.0 | 0.00 | 0.49 | 0.42 | 96 | 1008.1 |
| 20260506111211 | 45 | 250 | 3.0 | 13.0 | 0.00 | 0.49 | 0.42 | 97 | 1008.1 |
| 20260506111010 | 45 | 230 | 3.0 | 13.0 | 0.00 | 0.49 | 0.42 | 97 | 1008.1 |
| 20260506110808 | 45 | 278 | 4.0 | 13.0 | 0.00 | 0.49 | 0.42 | 98 | 1008.1 |
| 20260506110602 | 45 | 244 | 4.0 | 13.0 | 0.00 | 0.49 | 0.42 | 98 | 1008.2 |
| 20260506110357 | 45 | 241 | 5.0 | 13.0 | 0.00 | 0.49 | 0.42 | 98 | 1008.2 |
| 20260506110157 | 44 | 257 | 6.0 | 13.0 | 0.00 | 0.49 | 0.42 | 97 | 1008.2 |
| 20260506105957 | 44 | 245 | 5.0 | 13.0 | 0.00 | 0.49 | 0.42 | 97 | 1008.2 |
| 20260506105757 | 44 | 236 | 5.0 | 13.0 | 0.00 | 0.49 | 0.42 | 97 | 1008.2 |
| 20260506105553 | 44 | 269 | 5.0 | 13.0 | 0.00 | 0.49 | 0.42 | 97 | 1008.2 |
| 20260506105350 | 44 | 269 | 5.0 | 12.0 | 0.00 | 0.49 | 0.42 | 97 | 1008.3 |
| 20260506105142 | 44 | 235 | 5.0 | 12.0 | 0.00 | 0.49 | 0.42 | 97 | 1008.2 |
| 20260506104933 | 44 | 250 | 5.0 | 12.0 | 0.00 | 0.49 | 0.42 | 98 | 1008.3 |
| 20260506104045 | 44 | 231 | 5.0 | 16.0 | 0.00 | 0.49 | 0.42 | 98 | 1008.3 |
| 20260506103837 | 44 | 238 | 6.0 | 16.0 | 0.00 | 0.49 | 0.42 | 98 | 1008.3 |
| 20260506103627 | 44 | 255 | 7.0 | 16.0 | 0.00 | 0.48 | 0.41 | 98 | 1008.4 |
| 20260506103109 | 44 | 214 | 8.0 | 16.0 | 0.03 | 0.48 | 0.41 | 98 | 1008.4 |
| 20260506102542 | 44 | 215 | 7.0 | 15.0 | 0.03 | 0.48 | 0.41 | 98 | 1008.2 |
| 20260506102341 | 44 | 234 | 7.0 | 15.0 | 0.03 | 0.48 | 0.41 | 98 | 1008.3 |
| 20260506102136 | 44 | 266 | 7.0 | 15.0 | 0.03 | 0.48 | 0.41 | 98 | 1008.2 |
| 20260506101932 | 44 | 241 | 7.0 | 14.0 | 0.03 | 0.48 | 0.41 | 98 | 1008.2 |
| 20260506101728 | 44 | 250 | 7.0 | 14.0 | 0.03 | 0.48 | 0.41 | 98 | 1008.1 |
| 20260506101212 | 44 | 235 | 7.0 | 14.0 | 0.06 | 0.48 | 0.40 | 98 | 1008.0 |
| 20260506101008 | 44 | 226 | 6.0 | 13.0 | 0.07 | 0.48 | 0.40 | 98 | 1008.2 |
| 20260506100805 | 44 | 238 | 6.0 | 13.0 | 0.08 | 0.48 | 0.40 | 98 | 1008.1 |
| 20260506100603 | 44 | 239 | 5.0 | 13.0 | 0.08 | 0.48 | 0.40 | 98 | 1008.2 |
| 20260506100358 | 44 | 280 | 5.0 | 11.0 | 0.08 | 0.47 | 0.40 | 98 | 1008.0 |
| 20260506100154 | 44 | 235 | 5.0 | 11.0 | 0.13 | 0.47 | 0.40 | 98 | 1008.0 |
| 20260506095950 | 44 | 227 | 4.0 | 10.0 | 0.13 | 0.47 | 0.40 | 98 | 1007.9 |
| 20260506095750 | 44 | 243 | 4.0 | 10.0 | 0.11 | 0.46 | 0.39 | 98 | 1008.0 |
| 20260506095237 | 44 | 236 | 5.0 | 13.0 | 0.13 | 0.45 | 0.38 | 98 | 1008.0 |
| 20260506095030 | 44 | 241 | 5.0 | 13.0 | 0.14 | 0.44 | 0.37 | 98 | 1007.9 |
| 20260506094825 | 44 | 237 | 6.0 | 13.0 | 0.18 | 0.44 | 0.37 | 98 | 1007.8 |
| 20260506094616 | 44 | 249 | 6.0 | 13.0 | 0.17 | 0.44 | 0.37 | 98 | 1007.9 |
| 20260506093738 | 44 | 230 | 6.0 | 13.0 | 0.16 | 0.41 | 0.34 | 98 | 1007.8 |
| 20260506093538 | 45 | 236 | 5.0 | 10.0 | 0.13 | 0.40 | 0.33 | 98 | 1007.8 |
| 20260506093334 | 45 | 251 | 5.0 | 13.0 | 0.13 | 0.40 | 0.33 | 98 | 1007.8 |
| 20260506093130 | 45 | 232 | 5.0 | 13.0 | 0.14 | 0.40 | 0.33 | 98 | 1007.7 |
| 20260506092931 | 45 | 259 | 5.0 | 13.0 | 0.18 | 0.39 | 0.32 | 98 | 1007.7 |
| 20260506092723 | 45 | 250 | 5.0 | 13.0 | 0.24 | 0.38 | 0.32 | 98 | 1007.7 |
| 20260506092516 | 45 | 237 | 6.0 | 13.0 | 0.29 | 0.37 | 0.31 | 98 | 1007.7 |
| 20260506092307 | 45 | 244 | 6.0 | 13.0 | 0.14 | 0.37 | 0.29 | 98 | 1007.6 |
| 20260506091741 | 45 | 242 | 5.0 | 13.0 | 0.35 | 0.35 | 0.28 | 98 | 1007.6 |
| 20260506091531 | 45 | 255 | 5.0 | 13.0 | 0.38 | 0.33 | 0.26 | 98 | 1007.7 |
| 20260506091325 | 45 | 223 | 5.0 | 11.0 | 0.49 | 0.32 | 0.25 | 98 | 1007.6 |
| 20260506091121 | 45 | 236 | 4.0 | 14.0 | 0.29 | 0.30 | 0.24 | 98 | 1007.6 |
| 20260506090916 | 45 | 259 | 5.0 | 14.0 | 0.32 | 0.29 | 0.23 | 98 | 1007.6 |
| 20260506090716 | 45 | 239 | 5.0 | 14.0 | 0.32 | 0.29 | 0.22 | 98 | 1007.6 |
| 20260506090203 | 45 | 233 | 6.0 | 14.0 | 0.37 | 0.25 | 0.18 | 98 | 1007.6 |
| 20260506085326 | 45 | 232 | 5.0 | 14.0 | 0.27 | 0.21 | 0.14 | 97 | 1007.4 |
| 20260506084808 | 46 | 252 | 4.0 | 10.0 | 0.33 | 0.17 | 0.11 | 98 | 1007.3 |
| 20260506084602 | 46 | 257 | 4.0 | 10.0 | 0.37 | 0.16 | 0.09 | 98 | 1007.2 |
| 20260506084402 | 46 | 277 | 2.0 | 10.0 | 0.44 | 0.15 | 0.08 | 98 | 1007.1 |
| 20260506084200 | 46 | 229 | 2.0 | 8.0 | 0.25 | 0.14 | 0.07 | 98 | 1007.2 |
| 20260506083952 | 46 | 216 | 2.0 | 8.0 | 0.18 | 0.13 | 0.06 | 98 | 1007.0 |
| 20260506083747 | 46 | 205 | 2.0 | 8.0 | 0.18 | 0.12 | 0.05 | 98 | 1007.0 |
| 20260506083222 | 46 | 216 | 3.0 | 8.0 | 0.11 | 0.11 | 0.03 | 97 | 1006.8 |
| 20260506083012 | 46 | 234 | 3.0 | 8.0 | 0.11 | 0.11 | 0.03 | 97 | 1006.8 |
| 20260506082812 | 46 | 236 | 3.0 | 7.0 | 0.13 | 0.10 | 0.03 | 97 | 1006.8 |
| 20260506082603 | 46 | 241 | 3.0 | 7.0 | 0.14 | 0.10 | 0.03 | 97 | 1006.7 |
| 20260506082355 | 46 | 226 | 3.0 | 6.0 | 0.10 | 0.09 | 0.02 | 97 | 1006.6 |
| 20260506081828 | 46 | 232 | 3.0 | 6.0 | 0.00 | 0.08 | 0.01 | 97 | 1006.6 |
| 20260506081628 | 46 | 190 | 2.0 | 6.0 | 0.00 | 0.07 | 0.00 | 97 | 1006.5 |
| 20260506081427 | 46 | 227 | 3.0 | 7.0 | 0.00 | 0.07 | 0.00 | 96 | 1006.5 |
| 20260506081218 | 46 | 255 | 3.0 | 7.0 | 0.00 | 0.07 | 0.00 | 96 | 1006.5 |
| 20260506081016 | 46 | 229 | 3.0 | 7.0 | 0.00 | 0.07 | 0.00 | 96 | 1006.6 |
| 20260506080807 | 46 | 243 | 3.0 | 7.0 | 0.00 | 0.07 | 0.00 | 96 | 1006.4 |
| 20260506080247 | 46 | 248 | 3.0 | 7.0 | 0.00 | 0.07 | 0.00 | 96 | 1006.5 |
| 20260506073346 | 47 | 117 | 0.0 | 0.0 | 0.00 | 0.07 | 0.00 | 93 | 1006.2 |
| 20260506073140 | 47 | 117 | 0.0 | 0.0 | 0.00 | 0.07 | 0.00 | 93 | 1006.1 |
| 20260506072621 | 46 | 98 | 0.0 | 2.0 | 0.00 | 0.07 | 0.00 | 93 | 1006.1 |
| 20260506072420 | 46 | 89 | 0.0 | 2.0 | 0.00 | 0.07 | 0.00 | 93 | 1006.1 |
| 20260506072222 | 46 | 113 | 1.0 | 4.0 | 0.00 | 0.07 | 0.00 | 93 | 1006.1 |
| 20260506072016 | 46 | 116 | 1.0 | 4.0 | 0.00 | 0.07 | 0.00 | 93 | 1006.1 |
| 20260506071812 | 46 | 126 | 1.0 | 4.0 | 0.00 | 0.07 | 0.00 | 93 | 1006.1 |
| 20260506071612 | 46 | 116 | 2.0 | 4.0 | 0.00 | 0.07 | 0.00 | 93 | 1006.0 |
| 20260506071411 | 46 | 129 | 2.0 | 4.0 | 0.00 | 0.07 | 0.00 | 93 | 1006.0 |
| 20260506071206 | 46 | 138 | 2.0 | 4.0 | 0.00 | 0.07 | 0.00 | 93 | 1006.0 |
| 20260506070307 | 46 | 139 | 2.0 | 4.0 | 0.00 | 0.07 | 0.00 | 93 | 1006.0 |
| 20260506070106 | 46 | 93 | 2.0 | 3.0 | 0.00 | 0.07 | 0.00 | 93 | 1006.0 |
| 20260506062408 | 44 | 111 | 1.0 | 3.0 | 0.00 | 0.07 | 0.00 | 94 | 1006.1 |
| 20260506062205 | 44 | 115 | 1.0 | 3.0 | 0.00 | 0.07 | 0.00 | 94 | 1006.1 |
| 20260506062001 | 44 | 119 | 1.0 | 3.0 | 0.00 | 0.07 | 0.00 | 94 | 1006.2 |
| 20260506061438 | 44 | 113 | 2.0 | 3.0 | 0.00 | 0.07 | 0.00 | 94 | 1006.2 |
| 20260506061238 | 44 | 115 | 2.0 | 5.0 | 0.00 | 0.07 | 0.00 | 94 | 1006.2 |
| 20260506061033 | 45 | 120 | 2.0 | 5.0 | 0.00 | 0.07 | 0.00 | 93 | 1006.2 |
| 20260506060826 | 44 | 117 | 2.0 | 5.0 | 0.00 | 0.07 | 0.00 | 93 | 1006.2 |
| 20260506060619 | 45 | 100 | 2.0 | 5.0 | 0.00 | 0.08 | 0.00 | 93 | 1006.2 |
| 20260506060413 | 44 | 103 | 2.0 | 5.0 | 0.00 | 0.08 | 0.00 | 93 | 1006.2 |
| 20260506060209 | 44 | 108 | 2.0 | 5.0 | 0.00 | 0.08 | 0.00 | 93 | 1006.2 |
| 20260506051240 | 45 | 103 | 0.0 | 3.0 | 0.00 | 0.14 | 0.00 | 92 | 1006.1 |
| 20260506050709 | 45 | 101 | 0.0 | 1.0 | 0.00 | 0.15 | 0.00 | 92 | 1006.0 |
| 20260506050505 | 45 | 114 | 0.0 | 1.0 | 0.00 | 0.16 | 0.00 | 92 | 1006.1 |
| 20260506050259 | 45 | 115 | 0.0 | 0.0 | 0.00 | 0.17 | 0.00 | 92 | 1006.1 |
| 20260506044928 | 44 | 113 | 0.0 | 0.0 | 0.00 | 0.21 | 0.00 | 94 | 1006.1 |
| 20260506044724 | 44 | 113 | 0.0 | 0.0 | 0.00 | 0.22 | 0.00 | 94 | 1006.0 |
| 20260506044518 | 44 | 113 | 0.0 | 0.0 | 0.00 | 0.22 | 0.00 | 94 | 1006.2 |
| 20260506044316 | 44 | 113 | 0.0 | 0.0 | 0.00 | 0.22 | 0.00 | 95 | 1006.2 |
| 20260506044108 | 44 | 113 | 0.0 | 0.0 | 0.00 | 0.22 | 0.00 | 95 | 1006.2 |
| 20260506043545 | 43 | 113 | 0.0 | 0.0 | 0.00 | 0.24 | 0.00 | 95 | 1006.2 |
| 20260506043341 | 43 | 113 | 0.0 | 0.0 | 0.00 | 0.24 | 0.00 | 95 | 1006.2 |
| 20260506043138 | 43 | 113 | 0.0 | 0.0 | 0.00 | 0.24 | 0.00 | 95 | 1006.2 |
| 20260506042620 | 43 | 113 | 0.0 | 0.0 | 0.00 | 0.25 | 0.00 | 95 | 1006.1 |
| 20260506042410 | 43 | 113 | 0.0 | 0.0 | 0.00 | 0.25 | 0.00 | 95 | 1006.2 |
| 20260506042204 | 43 | 113 | 0.0 | 0.0 | 0.00 | 0.25 | 0.00 | 95 | 1006.3 |
| 20260506041958 | 43 | 113 | 0.0 | 0.0 | 0.00 | 0.26 | 0.00 | 95 | 1006.3 |
| 20260506041109 | 43 | 113 | 0.0 | 3.0 | 0.00 | 0.27 | 0.00 | 95 | 1006.2 |
| 20260506040906 | 43 | 113 | 0.0 | 3.0 | 0.00 | 0.27 | 0.00 | 95 | 1006.1 |
| 20260506040020 | 43 | 118 | 1.0 | 4.0 | 0.00 | 0.28 | 0.00 | 95 | 1006.2 |
| 20260506035820 | 43 | 120 | 1.0 | 4.0 | 0.00 | 0.28 | 0.00 | 95 | 1006.2 |
| 20260506035614 | 43 | 101 | 1.0 | 4.0 | 0.00 | 0.28 | 0.00 | 95 | 1006.3 |
| 20260506035407 | 43 | 123 | 1.0 | 4.0 | 0.00 | 0.28 | 0.00 | 95 | 1006.2 |
| 20260506035205 | 43 | 108 | 1.0 | 4.0 | 0.00 | 0.28 | 0.00 | 95 | 1006.2 |
| 20260506035006 | 43 | 117 | 1.0 | 4.0 | 0.00 | 0.28 | 0.00 | 95 | 1006.1 |
| 20260506034755 | 43 | 110 | 1.0 | 4.0 | 0.00 | 0.28 | 0.00 | 95 | 1006.2 |
| 20260506034554 | 43 | 98 | 1.0 | 4.0 | 0.00 | 0.28 | 0.00 | 95 | 1006.2 |
| 20260506034345 | 43 | 103 | 1.0 | 4.0 | 0.00 | 0.28 | 0.00 | 95 | 1006.1 |
| 20260506034136 | 43 | 117 | 1.0 | 4.0 | 0.00 | 0.28 | 0.00 | 95 | 1006.2 |
| 20260506033926 | 43 | 118 | 0.0 | 2.0 | 0.00 | 0.28 | 0.00 | 95 | 1006.1 |
| 20260506033716 | 43 | 113 | 0.0 | 4.0 | 0.00 | 0.28 | 0.00 | 95 | 1006.2 |
| 20260506033512 | 43 | 117 | 0.0 | 4.0 | 0.00 | 0.28 | 0.00 | 95 | 1006.1 |
| 20260506033304 | 43 | 113 | 1.0 | 4.0 | 0.00 | 0.28 | 0.00 | 95 | 1006.2 |
| 20260506033100 | 43 | 120 | 1.0 | 4.0 | 0.00 | 0.28 | 0.00 | 95 | 1006.2 |
| 20260506032900 | 43 | 113 | 1.0 | 4.0 | 0.00 | 0.28 | 0.00 | 95 | 1006.3 |
| 20260506032700 | 43 | 103 | 1.0 | 4.0 | 0.00 | 0.28 | 0.00 | 95 | 1006.3 |
| 20260506032455 | 43 | 125 | 1.0 | 4.0 | 0.00 | 0.28 | 0.00 | 95 | 1006.4 |
| 20260506032255 | 43 | 112 | 1.0 | 4.0 | 0.00 | 0.28 | 0.00 | 95 | 1006.4 |
| 20260506032051 | 43 | 113 | 1.0 | 4.0 | 0.00 | 0.28 | 0.00 | 95 | 1006.5 |
| 20260506031846 | 43 | 134 | 1.0 | 4.0 | 0.00 | 0.28 | 0.00 | 95 | 1006.4 |
| 20260506031331 | 44 | 122 | 2.0 | 5.0 | 0.00 | 0.28 | 0.00 | 95 | 1006.6 |
| 20260506031123 | 44 | 117 | 2.0 | 5.0 | 0.00 | 0.29 | 0.00 | 95 | 1006.6 |
| 20260506030922 | 44 | 129 | 2.0 | 5.0 | 0.00 | 0.29 | 0.00 | 94 | 1006.6 |
| 20260506030721 | 44 | 117 | 2.0 | 5.0 | 0.00 | 0.29 | 0.00 | 94 | 1006.7 |
| 20260506030522 | 44 | 120 | 2.0 | 5.0 | 0.00 | 0.29 | 0.00 | 94 | 1006.7 |
| 20260506030320 | 44 | 119 | 2.0 | 5.0 | 0.00 | 0.29 | 0.00 | 94 | 1006.8 |
| 20260506025436 | 44 | 129 | 1.0 | 3.0 | 0.00 | 0.29 | 0.00 | 93 | 1006.9 |
| 20260506025237 | 44 | 101 | 1.0 | 3.0 | 0.00 | 0.29 | 0.00 | 93 | 1006.8 |
| 20260506025027 | 45 | 111 | 2.0 | 3.0 | 0.00 | 0.29 | 0.00 | 93 | 1006.9 |
| 20260506024823 | 45 | 114 | 2.0 | 3.0 | 0.00 | 0.29 | 0.00 | 93 | 1006.8 |
| 20260506024621 | 45 | 114 | 1.0 | 3.0 | 0.00 | 0.29 | 0.00 | 93 | 1006.8 |
| 20260506024415 | 45 | 108 | 1.0 | 3.0 | 0.00 | 0.29 | 0.00 | 93 | 1006.9 |
| 20260506024206 | 45 | 115 | 0.0 | 3.0 | 0.00 | 0.30 | 0.00 | 92 | 1006.8 |
| 20260506023956 | 45 | 132 | 0.0 | 2.0 | 0.00 | 0.30 | 0.00 | 92 | 1006.8 |
| 20260506023747 | 45 | 122 | 0.0 | 1.0 | 0.00 | 0.30 | 0.00 | 92 | 1006.8 |
| 20260506023541 | 45 | 109 | 0.0 | 1.0 | 0.00 | 0.30 | 0.00 | 92 | 1006.8 |
| 20260506023014 | 45 | 109 | 0.0 | 0.0 | 0.00 | 0.31 | 0.00 | 93 | 1006.8 |
| 20260506022814 | 45 | 109 | 0.0 | 0.0 | 0.00 | 0.31 | 0.00 | 92 | 1006.9 |
| 20260506022605 | 45 | 109 | 0.0 | 3.0 | 0.00 | 0.32 | 0.00 | 92 | 1007.0 |
| 20260506022356 | 45 | 109 | 0.0 | 2.0 | 0.00 | 0.32 | 0.00 | 92 | 1007.0 |
| 20260506022155 | 45 | 106 | 0.0 | 2.0 | 0.00 | 0.32 | 0.00 | 92 | 1007.2 |
| 20260506021949 | 45 | 108 | 0.0 | 2.0 | 0.00 | 0.33 | 0.00 | 92 | 1007.1 |
| 20260506021749 | 45 | 109 | 0.0 | 2.0 | 0.00 | 0.33 | 0.00 | 92 | 1007.2 |
| 20260506021229 | 45 | 139 | 0.0 | 0.0 | 0.00 | 0.33 | 0.00 | 92 | 1007.2 |
| 20260506021023 | 45 | 139 | 0.0 | 0.0 | 0.00 | 0.33 | 0.00 | 92 | 1007.3 |
| 20260506020815 | 45 | 113 | 0.0 | 1.0 | 0.00 | 0.33 | 0.00 | 92 | 1007.4 |
| 20260506020612 | 45 | 111 | 0.0 | 1.0 | 0.00 | 0.33 | 0.00 | 92 | 1007.4 |
| 20260506020411 | 45 | 167 | 0.0 | 0.0 | 0.00 | 0.33 | 0.00 | 92 | 1007.4 |
| 20260506020207 | 45 | 167 | 0.0 | 2.0 | 0.00 | 0.33 | 0.00 | 92 | 1007.4 |
| 20260506020006 | 45 | 167 | 0.0 | 2.0 | 0.00 | 0.33 | 0.00 | 92 | 1007.4 |
| 20260506015446 | 45 | 109 | 1.0 | 0.0 | 0.00 | 0.33 | 0.00 | 93 | 1007.4 |
| 20260506015239 | 45 | 116 | 1.0 | 6.0 | 0.00 | 0.33 | 0.00 | 93 | 1007.6 |
| 20260506015031 | 45 | 111 | 1.0 | 6.0 | 0.00 | 0.34 | 0.00 | 93 | 1007.4 |
| 20260506014832 | 45 | 135 | 1.0 | 6.0 | 0.00 | 0.34 | 0.00 | 93 | 1007.6 |
| 20260506014259 | 45 | 113 | 2.0 | 6.0 | 0.00 | 0.34 | 0.00 | 93 | 1007.5 |
| 20260506014053 | 45 | 95 | 3.0 | 6.0 | 0.00 | 0.34 | 0.00 | 93 | 1007.5 |
| 20260506013852 | 45 | 107 | 3.0 | 6.0 | 0.00 | 0.34 | 0.00 | 93 | 1007.6 |
| 20260506013652 | 45 | 111 | 3.0 | 6.0 | 0.00 | 0.34 | 0.00 | 93 | 1007.6 |
| 20260506013445 | 45 | 117 | 2.0 | 5.0 | 0.00 | 0.34 | 0.00 | 93 | 1007.6 |
| 20260506013242 | 45 | 84 | 2.0 | 4.0 | 0.00 | 0.34 | 0.00 | 92 | 1007.6 |
| 20260506012712 | 46 | 122 | 0.0 | 4.0 | 0.00 | 0.34 | 0.00 | 90 | 1007.6 |
| 20260506012504 | 46 | 108 | 0.0 | 3.0 | 0.00 | 0.34 | 0.00 | 89 | 1007.6 |
| 20260506012308 | 47 | 117 | 0.0 | 2.0 | 0.00 | 0.34 | 0.00 | 88 | 1007.7 |
| 20260506012100 | 47 | 100 | 0.0 | 0.0 | 0.00 | 0.34 | 0.00 | 88 | 1007.6 |
| 20260506011850 | 47 | 96 | 0.0 | 0.0 | 0.00 | 0.34 | 0.00 | 88 | 1007.7 |
| 20260506011650 | 47 | 150 | 0.0 | 3.0 | 0.00 | 0.34 | 0.00 | 88 | 1007.8 |
| 20260506011450 | 47 | 146 | 0.0 | 3.0 | 0.00 | 0.34 | 0.00 | 88 | 1007.8 |
| 20260506011250 | 47 | 226 | 1.0 | 3.0 | 0.00 | 0.34 | 0.00 | 88 | 1007.9 |
| 20260506011048 | 47 | 215 | 1.0 | 3.0 | 0.00 | 0.34 | 0.00 | 88 | 1007.9 |
| 20260506010844 | 47 | 210 | 1.0 | 4.0 | 0.00 | 0.34 | 0.00 | 88 | 1007.9 |
| 20260506010634 | 47 | 190 | 1.0 | 4.0 | 0.00 | 0.34 | 0.00 | 89 | 1007.9 |
| 20260506010425 | 47 | 193 | 0.0 | 4.0 | 0.00 | 0.35 | 0.00 | 89 | 1008.0 |
| 20260506005859 | 47 | 157 | 0.0 | 4.0 | 0.00 | 0.35 | 0.00 | 89 | 1008.2 |
| 20260506005657 | 47 | 229 | 0.0 | 4.0 | 0.00 | 0.35 | 0.00 | 89 | 1008.2 |
| 20260506005457 | 47 | 221 | 0.0 | 4.0 | 0.00 | 0.35 | 0.00 | 88 | 1008.2 |
| 20260506005253 | 47 | 229 | 1.0 | 4.0 | 0.00 | 0.35 | 0.00 | 88 | 1008.1 |
| 20260506005053 | 47 | 196 | 0.0 | 4.0 | 0.00 | 0.35 | 0.00 | 88 | 1008.2 |
| 20260506004525 | 47 | 259 | 0.0 | 2.0 | 0.00 | 0.35 | 0.00 | 89 | 1008.1 |
| 20260506004316 | 47 | 212 | 0.0 | 2.0 | 0.00 | 0.35 | 0.00 | 89 | 1008.1 |
| 20260506004115 | 47 | 217 | 0.0 | 1.0 | 0.00 | 0.35 | 0.00 | 89 | 1008.1 |
| 20260506003912 | 47 | 222 | 0.0 | 1.0 | 0.00 | 0.35 | 0.00 | 89 | 1008.1 |
| 20260506003701 | 47 | 231 | 0.0 | 1.0 | 0.00 | 0.35 | 0.00 | 89 | 1008.2 |
| 20260506003457 | 47 | 236 | 0.0 | 2.0 | 0.00 | 0.35 | 0.00 | 89 | 1008.2 |
| 20260506003248 | 47 | 224 | 0.0 | 2.0 | 0.00 | 0.35 | 0.00 | 89 | 1008.2 |
| 20260506002723 | 47 | 242 | 0.0 | 2.0 | 0.00 | 0.35 | 0.00 | 88 | 1008.3 |
| 20260506002159 | 47 | 219 | 1.0 | 7.0 | 0.00 | 0.35 | 0.00 | 88 | 1008.5 |
| 20260506001952 | 47 | 214 | 1.0 | 7.0 | 0.00 | 0.35 | 0.00 | 88 | 1008.5 |
| 20260506001742 | 47 | 232 | 2.0 | 7.0 | 0.00 | 0.35 | 0.00 | 88 | 1008.6 |
| 20260506001531 | 47 | 219 | 2.0 | 7.0 | 0.00 | 0.35 | 0.00 | 88 | 1008.6 |
| 20260506001328 | 47 | 226 | 2.0 | 7.0 | 0.00 | 0.35 | 0.00 | 88 | 1008.8 |
| 20260506001125 | 47 | 208 | 2.0 | 7.0 | 0.00 | 0.35 | 0.00 | 88 | 1008.9 |
| 20260506000920 | 47 | 220 | 2.0 | 7.0 | 0.00 | 0.35 | 0.00 | 88 | 1009.0 |
| 20260506000715 | 48 | 226 | 2.0 | 7.0 | 0.00 | 0.35 | 0.00 | 87 | 1009.0 |
| 20260506000509 | 48 | 217 | 3.0 | 6.0 | 0.00 | 0.35 | 0.00 | 87 | 1009.0 |
| 20260506000302 | 48 | 236 | 2.0 | 6.0 | 0.00 | 0.35 | 0.00 | 87 | 1009.0 |
| 20260505235737 | 47 | 226 | 2.0 | 7.0 | 0.00 | 0.35 | 0.00 | 87 | 1009.2 |
| 20260505235528 | 47 | 217 | 2.0 | 7.0 | 0.00 | 0.35 | 0.00 | 87 | 1009.3 |
| 20260505235328 | 48 | 204 | 2.0 | 7.0 | 0.00 | 0.35 | 0.00 | 87 | 1009.3 |
| 20260505235117 | 48 | 252 | 2.0 | 7.0 | 0.00 | 0.35 | 0.00 | 87 | 1009.3 |
| 20260505234554 | 47 | 188 | 3.0 | 7.0 | 0.00 | 0.35 | 0.00 | 87 | 1009.3 |
| 20260505234349 | 48 | 207 | 3.0 | 7.0 | 0.00 | 0.35 | 0.00 | 87 | 1009.3 |
| 20260505234142 | 48 | 226 | 3.0 | 7.0 | 0.00 | 0.35 | 0.00 | 87 | 1009.4 |
| 20260505233939 | 48 | 252 | 2.0 | 7.0 | 0.00 | 0.35 | 0.00 | 87 | 1009.4 |
| 20260505233737 | 48 | 227 | 2.0 | 6.0 | 0.00 | 0.35 | 0.00 | 88 | 1009.3 |
| 20260505232858 | 47 | 233 | 1.0 | 5.0 | 0.00 | 0.35 | 0.00 | 89 | 1009.3 |
| 20260505232648 | 47 | 229 | 2.0 | 5.0 | 0.00 | 0.35 | 0.00 | 89 | 1009.2 |
| 20260505232445 | 47 | 226 | 2.0 | 7.0 | 0.00 | 0.35 | 0.00 | 89 | 1009.3 |
| 20260505232235 | 47 | 213 | 2.0 | 7.0 | 0.00 | 0.35 | 0.00 | 89 | 1009.2 |
| 20260505231715 | 47 | 210 | 3.0 | 7.0 | 0.00 | 0.35 | 0.00 | 89 | 1009.3 |
| 20260505231152 | 47 | 221 | 3.0 | 7.0 | 0.00 | 0.35 | 0.00 | 89 | 1009.3 |
| 20260505230954 | 47 | 256 | 2.0 | 7.0 | 0.00 | 0.35 | 0.00 | 89 | 1009.3 |
| 20260505230426 | 47 | 200 | 2.0 | 6.0 | 0.00 | 0.35 | 0.00 | 89 | 1009.3 |
| 20260505225545 | 47 | 229 | 2.0 | 6.0 | 0.00 | 0.35 | 0.00 | 89 | 1009.5 |
| 20260505225340 | 47 | 226 | 2.0 | 6.0 | 0.00 | 0.35 | 0.00 | 89 | 1009.6 |
| 20260505225135 | 47 | 240 | 2.0 | 10.0 | 0.00 | 0.35 | 0.00 | 89 | 1009.6 |
| 20260505224935 | 47 | 248 | 3.0 | 10.0 | 0.00 | 0.35 | 0.00 | 89 | 1009.6 |
| 20260505224735 | 47 | 196 | 3.0 | 10.0 | 0.00 | 0.35 | 0.00 | 89 | 1009.7 |
| 20260505224531 | 47 | 245 | 3.0 | 10.0 | 0.00 | 0.35 | 0.00 | 89 | 1009.8 |
| 20260505224326 | 47 | 238 | 3.0 | 10.0 | 0.00 | 0.35 | 0.00 | 89 | 1009.7 |
| 20260505224123 | 48 | 217 | 4.0 | 10.0 | 0.00 | 0.35 | 0.00 | 89 | 1009.7 |
| 20260505223917 | 48 | 236 | 4.0 | 10.0 | 0.00 | 0.35 | 0.00 | 88 | 1009.8 |
| 20260505223716 | 48 | 210 | 4.0 | 10.0 | 0.00 | 0.35 | 0.00 | 88 | 1009.7 |
| 20260505223506 | 48 | 239 | 4.0 | 10.0 | 0.00 | 0.35 | 0.00 | 88 | 1009.7 |
| 20260505222627 | 48 | 131 | 3.0 | 7.0 | 0.00 | 0.35 | 0.00 | 87 | 1009.7 |
| 20260505222419 | 48 | 203 | 3.0 | 7.0 | 0.00 | 0.35 | 0.00 | 87 | 1009.8 |
| 20260505222211 | 48 | 205 | 3.0 | 6.0 | 0.00 | 0.35 | 0.00 | 87 | 1009.7 |
| 20260505221647 | 48 | 226 | 3.0 | 6.0 | 0.00 | 0.35 | 0.00 | 88 | 1009.8 |
| 20260505221442 | 48 | 211 | 3.0 | 6.0 | 0.00 | 0.35 | 0.00 | 88 | 1009.8 |
| 20260505221241 | 48 | 212 | 3.0 | 6.0 | 0.00 | 0.35 | 0.00 | 87 | 1009.8 |
| 20260505221039 | 48 | 207 | 3.0 | 6.0 | 0.00 | 0.35 | 0.00 | 87 | 1009.7 |
| 20260505220520 | 48 | 219 | 3.0 | 7.0 | 0.00 | 0.35 | 0.00 | 85 | 1009.7 |
| 20260505215954 | 48 | 239 | 2.0 | 7.0 | 0.00 | 0.35 | 0.35 | 85 | 1009.7 |
| 20260505215755 | 48 | 213 | 3.0 | 7.0 | 0.00 | 0.35 | 0.35 | 85 | 1009.6 |
| 20260505215555 | 48 | 214 | 3.0 | 7.0 | 0.00 | 0.35 | 0.35 | 85 | 1009.7 |
| 20260505215354 | 49 | 253 | 2.0 | 7.0 | 0.00 | 0.35 | 0.35 | 85 | 1009.8 |
| 20260505215154 | 49 | 203 | 2.0 | 7.0 | 0.00 | 0.35 | 0.35 | 85 | 1009.8 |
| 20260505214629 | 49 | 207 | 2.0 | 6.0 | 0.00 | 0.35 | 0.35 | 85 | 1009.7 |
| 20260505214427 | 49 | 238 | 2.0 | 6.0 | 0.00 | 0.35 | 0.35 | 85 | 1009.7 |
| 20260505214218 | 49 | 221 | 3.0 | 6.0 | 0.00 | 0.35 | 0.35 | 85 | 1009.7 |
| 20260505213337 | 49 | 237 | 3.0 | 8.0 | 0.00 | 0.35 | 0.35 | 86 | 1009.7 |
| 20260505213129 | 49 | 214 | 3.0 | 8.0 | 0.00 | 0.35 | 0.35 | 87 | 1009.7 |
| 20260505212600 | 48 | 210 | 3.0 | 8.0 | 0.00 | 0.35 | 0.35 | 88 | 1009.7 |
| 20260505212350 | 48 | 221 | 3.0 | 8.0 | 0.00 | 0.35 | 0.35 | 89 | 1009.7 |
| 20260505211519 | 49 | 237 | 2.0 | 8.0 | 0.00 | 0.35 | 0.35 | 90 | 1009.6 |
| 20260505211311 | 49 | 205 | 2.0 | 10.0 | 0.00 | 0.35 | 0.35 | 90 | 1009.7 |
| 20260505211106 | 49 | 240 | 2.0 | 10.0 | 0.00 | 0.35 | 0.35 | 91 | 1009.7 |
| 20260505210900 | 49 | 208 | 2.0 | 10.0 | 0.00 | 0.35 | 0.35 | 91 | 1009.7 |
| 20260505210329 | 49 | 245 | 2.0 | 10.0 | 0.00 | 0.35 | 0.35 | 91 | 1009.7 |
| 20260505210122 | 49 | 201 | 2.0 | 10.0 | 0.00 | 0.35 | 0.35 | 91 | 1009.7 |
| 20260505205918 | 49 | 226 | 2.0 | 10.0 | 0.00 | 0.35 | 0.35 | 91 | 1009.8 |
| 20260505205713 | 49 | 250 | 2.0 | 10.0 | 0.00 | 0.35 | 0.35 | 91 | 1009.7 |
| 20260505205511 | 49 | 243 | 2.0 | 10.0 | 0.00 | 0.35 | 0.35 | 90 | 1009.8 |
| 20260505204941 | 49 | 247 | 2.0 | 9.0 | 0.00 | 0.35 | 0.35 | 90 | 1009.8 |
| 20260505204420 | 49 | 252 | 2.0 | 9.0 | 0.00 | 0.35 | 0.35 | 90 | 1009.9 |
| 20260505203847 | 49 | 226 | 1.0 | 6.0 | 0.00 | 0.35 | 0.35 | 91 | 1009.8 |
| 20260505203318 | 49 | 200 | 1.0 | 4.0 | 0.00 | 0.35 | 0.35 | 91 | 1009.8 |
| 20260505202756 | 49 | 223 | 2.0 | 4.0 | 0.00 | 0.35 | 0.35 | 91 | 1010.0 |
| 20260505202549 | 49 | 226 | 2.0 | 7.0 | 0.00 | 0.35 | 0.35 | 90 | 1010.0 |
| 20260505202024 | 49 | 242 | 2.0 | 7.0 | 0.00 | 0.35 | 0.35 | 90 | 1009.9 |
| 20260505201821 | 49 | 85 | 2.0 | 7.0 | 0.00 | 0.35 | 0.35 | 90 | 1010.0 |
| 20260505201615 | 49 | 214 | 2.0 | 7.0 | 0.00 | 0.35 | 0.35 | 89 | 1009.9 |
| 20260505201408 | 49 | 252 | 2.0 | 7.0 | 0.00 | 0.35 | 0.35 | 90 | 1009.8 |
| 20260505201208 | 49 | 251 | 2.0 | 7.0 | 0.00 | 0.35 | 0.35 | 90 | 1009.8 |
| 20260505201007 | 49 | 214 | 2.0 | 7.0 | 0.00 | 0.35 | 0.35 | 90 | 1009.8 |
| 20260505200806 | 49 | 234 | 2.0 | 7.0 | 0.00 | 0.35 | 0.35 | 90 | 1009.8 |
| 20260505200601 | 49 | 257 | 2.0 | 5.0 | 0.00 | 0.35 | 0.35 | 90 | 1009.8 |
| 20260505200353 | 49 | 208 | 2.0 | 5.0 | 0.00 | 0.35 | 0.35 | 90 | 1009.8 |
| 20260505200143 | 49 | 226 | 2.0 | 5.0 | 0.00 | 0.35 | 0.35 | 90 | 1009.8 |
| 20260505195937 | 49 | 210 | 2.0 | 5.0 | 0.00 | 0.35 | 0.35 | 90 | 1009.7 |
| 20260505195732 | 49 | 217 | 2.0 | 6.0 | 0.00 | 0.35 | 0.35 | 90 | 1009.8 |
| 20260505195523 | 49 | 236 | 1.0 | 6.0 | 0.00 | 0.35 | 0.35 | 90 | 1009.8 |
| 20260505194633 | 49 | 224 | 1.0 | 6.0 | 0.00 | 0.35 | 0.35 | 91 | 1009.7 |
| 20260505194434 | 49 | 229 | 1.0 | 6.0 | 0.00 | 0.35 | 0.35 | 91 | 1009.7 |
| 20260505194234 | 49 | 221 | 1.0 | 6.0 | 0.00 | 0.35 | 0.35 | 91 | 1009.6 |
| 20260505194027 | 49 | 224 | 1.0 | 6.0 | 0.00 | 0.35 | 0.35 | 92 | 1009.6 |
| 20260505193149 | 49 | 134 | 0.0 | 5.0 | 0.00 | 0.35 | 0.35 | 93 | 1009.2 |
| 20260505192948 | 49 | 153 | 0.0 | 5.0 | 0.00 | 0.35 | 0.35 | 93 | 1009.2 |
| 20260505192738 | 49 | 70 | 0.0 | 5.0 | 0.00 | 0.35 | 0.35 | 93 | 1009.2 |
| 20260505192222 | 49 | 210 | 0.0 | 5.0 | 0.00 | 0.35 | 0.35 | 93 | 1009.2 |
| 20260505192014 | 49 | 200 | 0.0 | 3.0 | 0.00 | 0.35 | 0.35 | 92 | 1009.2 |
| 20260505191805 | 49 | 212 | 0.0 | 3.0 | 0.00 | 0.35 | 0.35 | 92 | 1009.1 |
| 20260505191601 | 49 | 97 | 1.0 | 9.0 | 0.00 | 0.35 | 0.35 | 92 | 1009.1 |
| 20260505191359 | 49 | 224 | 1.0 | 9.0 | 0.00 | 0.35 | 0.35 | 92 | 1009.0 |
| 20260505191148 | 49 | 226 | 1.0 | 9.0 | 0.00 | 0.35 | 0.35 | 92 | 1009.1 |
| 20260505190630 | 49 | 229 | 2.0 | 9.0 | 0.00 | 0.35 | 0.35 | 92 | 1009.1 |
| 20260505190431 | 49 | 232 | 1.0 | 9.0 | 0.00 | 0.35 | 0.35 | 92 | 1009.0 |
| 20260505190224 | 49 | 169 | 1.0 | 5.0 | 0.00 | 0.35 | 0.35 | 92 | 1009.0 |
| 20260505190013 | 49 | 164 | 1.0 | 5.0 | 0.00 | 0.35 | 0.35 | 92 | 1009.2 |
| 20260505185815 | 49 | 257 | 1.0 | 5.0 | 0.00 | 0.35 | 0.35 | 92 | 1009.2 |
| 20260505185606 | 49 | 202 | 1.0 | 4.0 | 0.00 | 0.35 | 0.35 | 92 | 1009.0 |
| 20260505185403 | 49 | 206 | 1.0 | 5.0 | 0.00 | 0.35 | 0.35 | 92 | 1009.0 |
| 20260505185156 | 49 | 214 | 1.0 | 5.0 | 0.00 | 0.35 | 0.35 | 92 | 1009.0 |
| 20260505184949 | 49 | 229 | 1.0 | 5.0 | 0.00 | 0.35 | 0.35 | 92 | 1009.1 |
| 20260505184744 | 49 | 220 | 1.0 | 5.0 | 0.00 | 0.35 | 0.35 | 92 | 1009.1 |
| 20260505184229 | 49 | 154 | 1.0 | 5.0 | 0.00 | 0.35 | 0.35 | 92 | 1009.1 |
| 20260505183702 | 49 | 217 | 1.0 | 5.0 | 0.00 | 0.35 | 0.35 | 91 | 1009.1 |
| 20260505183453 | 49 | 237 | 1.0 | 4.0 | 0.00 | 0.35 | 0.35 | 92 | 1009.0 |
| 20260505182936 | 49 | 172 | 1.0 | 4.0 | 0.00 | 0.35 | 0.35 | 92 | 1009.0 |
| 20260505182727 | 49 | 257 | 1.0 | 4.0 | 0.00 | 0.35 | 0.35 | 93 | 1009.0 |
| 20260505182519 | 49 | 214 | 1.0 | 4.0 | 0.00 | 0.35 | 0.35 | 93 | 1009.0 |
| 20260505182318 | 49 | 193 | 1.0 | 4.0 | 0.00 | 0.35 | 0.35 | 93 | 1009.1 |
| 20260505181744 | 49 | 215 | 1.0 | 4.0 | 0.00 | 0.35 | 0.35 | 93 | 1009.1 |
| 20260505181542 | 49 | 218 | 1.0 | 4.0 | 0.00 | 0.35 | 0.35 | 93 | 1009.1 |
| 20260505181336 | 50 | 216 | 1.0 | 4.0 | 0.00 | 0.35 | 0.35 | 93 | 1009.1 |
| 20260505181133 | 50 | 226 | 0.0 | 4.0 | 0.00 | 0.35 | 0.35 | 93 | 1009.1 |
| 20260505180928 | 50 | 210 | 0.0 | 3.0 | 0.00 | 0.35 | 0.35 | 94 | 1009.1 |
| 20260505180720 | 50 | 237 | 0.0 | 3.0 | 0.00 | 0.34 | 0.34 | 94 | 1009.1 |
| 20260505180511 | 50 | 203 | 0.0 | 3.0 | 0.00 | 0.34 | 0.34 | 94 | 1009.1 |
| 20260505180305 | 50 | 208 | 0.0 | 3.0 | 0.00 | 0.34 | 0.34 | 95 | 1009.1 |
| 20260505180057 | 50 | 231 | 0.0 | 3.0 | 0.00 | 0.34 | 0.34 | 95 | 1009.1 |
| 20260505175853 | 50 | 211 | 0.0 | 3.0 | 0.00 | 0.34 | 0.34 | 95 | 1009.1 |
| 20260505175644 | 50 | 210 | 0.0 | 4.0 | 0.00 | 0.34 | 0.34 | 95 | 1009.1 |
| 20260505175434 | 50 | 217 | 0.0 | 4.0 | 0.00 | 0.34 | 0.34 | 95 | 1009.0 |
| 20260505175228 | 50 | 160 | 0.0 | 4.0 | 0.00 | 0.34 | 0.34 | 95 | 1009.1 |
| 20260505175023 | 50 | 213 | 0.0 | 4.0 | 0.00 | 0.34 | 0.34 | 95 | 1009.1 |